Location: Cottbus
(51.7000°N, 14.3000°E)
Time: 00:15:04
(UTC+01:00)

ISS - Pass Details

Date: 28 January 2019
Orbit: 403 x 411 km, 51.6° (Epoch: 20 February)

Event Time Altitude Azimuth Distance (km) Brightness Sun altitude
Rises 19:06:50 0° 260° (W) 2,335 1.5 -22.0°
Reaches altitude 10° 19:08:55 10° 260° (W) 1,477 0.1 -22.3°
Enters shadow 19:11:28 50° 256° (WSW) 533 -2.9 -22.7°
